Probability
6 6 6 5 5 4 2 1 0 0 0 0 0 0 0 0 0 0 0 0 0 0 0 0 0 0 0 0 0 0 0 0 0 0 0 0 0 0 0 0 0 0 0
5 5 6 5 4 3 1 0 0 0 0 0 0 0 0 0 0 0 0 0 0 0 0 0 0 0 0 0 0 0 0 0 0 0 0 0 0 0 0 0 0 0 0
4 4 5 5 4 3 1 0 0 0 0 0 0 0 0 0 0 0 0 0 0 0 0 0 0 0 0 0 0 0 0 0 0 0 0 0 0 0 0 0 0 0 0
5 4 4 5 4 3 2 1 0 0 0 0 0 0 0 0 0 0 0 0 0 0 0 0 0 0 0 0 0 0 0 0 0 0 0 0 0 0 0 0 0 0 0
4 3 3 4 3 3 2 1 0 0 0 0 0 0 0 0 0 0 0 0 0 0 0 0 0 0 0 0 0 0 0 0 0 0 0 0 0 0 0 0 0 0 0
1 2 3 3 2 1 1 0 0 0 0 0 0 0 0 0 0 0 0 0 0 0 0 0 0 0 0 0 0 0 0 0 0 0 0 0 0 0 0 0 0 0 0
0 1 2 2 1 0 0 0 0 0 0 0 0 0 0 0 0 0 0 0 0 0 0 0 0 0 0 0 0 0 0 0 0 0 0 0 0 0 0 0 0 0 0
0 0 1 1 0 0 0 0 0 0 0 0 0 0 0 0 0 0 0 0 0 0 0 0 0 0 0 0 0 0 0 0 0 0 0 0 0 0 0 0 0 0 0
0 0 0 0 0 0 0 0 0 0 0 0 0 0 0 0 0 0 0 0 0 0 0 0 0 0 0 0 0 0 0 0 0 0 0 0 0 0 0 0 0 0 0
0 0 0 0 0 0 0 0 0 0 0 0 0 0 0 0 0 0 0 0 0 0 0 0 0 0 0 0 0 0 0 0 0 0 0 0 0 0 0 0 0 0 0
0 0 0 0 0 0 0 0 0 0 0 0 0 0 0 0 0 0 0 0 0 0 0 0 0 0 0 0 0 0 0 0 0 0 0 0 0 0 0 0 0 0 0
0 0 0 0 0 0 0 0 0 0 0 0 0 0 0 0 0 0 0 0 0 0 0 0 0 0 0 0 0 0 0 0 0 0 0 0 0 0 0 0 0 0 0
0 0 0 0 0 0 0 0 0 0 0 0 0 0 0 0 0 0 0 0 0 0 0 0 0 0 0 0 0 0 0 0 0 0 0 0 0 0 0 0 0 0 0
0 0 0 0 0 0 0 0 0 0 0 0 0 0 0 0 0 0 0 0 0 0 0 0 0 0 0 0 0 0 0 0 0 0 0 0 0 0 0 0 0 0 0
0 0 0 0 0 0 0 0 0 0 0 0 0 0 0 0 0 0 0 0 0 0 0 0 0 0 0 0 0 0 0 0 0 0 0 0 0 0 0 0 0 0 0
0 0 0 0 0 0 0 0 0 0 0 0 0 0 0 0 0 0 0 0 0 0 0 0 0 0 0 0 0 0 0 0 0 0 0 0 0 0 0 0 0 0 0
0 0 0 0 0 0 0 0 0 0 0 0 0 0 0 0 0 0 0 0 0 0 0 0 0 0 0 0 0 0 0 0 0 0 0 0 0 0 0 0 0 0 0
0 0 0 0 0 0 0 0 0 0 0 0 0 0 0 0 0 0 0 0 0 0 0 0 0 0 0 0 0 0 0 0 0 0 0 0 0 0 0 0 0 0 0
0 0 0 0 0 0 0 0 0 0 0 0 0 0 0 0 0 0 0 0 0 0 0 0 0 0 0 0 0 0 0 0 0 0 0 0 0 0 0 0 0 0 0
0 0 0 0 0 0 0 0 0 0 0 0 0 0 0 0 0 0 0 0 0 0 0 0 0 0 0 0 0 0 0 0 0 0 0 0 0 0 0 0 0 0 0
0 0 0 0 0 0 0 0 0 0 0 0 0 0 0 0 0 0 0 0 0 0 0 0 0 0 0 0 0 0 0 0 0 0 0 0 0 0 0 0 0 0 0
0 0 0 0 0 0 0 0 0 0 0 0 0 0 0 0 0 0 0 0 0 0 0 0 0 0 0 0 0 0 0 0 0 0 0 0 0 0 0 0 0 0 0
0 0 0 0 0 0 0 0 0 0 0 0 0 0 0 0 0 0 0 0 0 0 0 0 0 0 0 0 0 0 0 0 0 0 0 0 0 0 0 0 0 0 0
0 0 0 0 0 0 0 0 0 0 0 0 0 0 0 0 0 0 0 0 0 0 0 0 0 0 0 0 0 0 0 0 0 0 0 0 0 0 0 0 0 0 0
0 0 0 0 0 0 0 0 0 0 0 0 0 0 0 0 0 0 0 0 0 0 0 0 0 0 0 0 0 0 0 0 0 0 0 0 0 0 0 0 0 0 0
0 0 0 0 0 0 0 0 0 0 0 0 0 0 0 0 0 0 0 0 0 0 0 0 0 0 0 0 0 0 0 0 0 0 0 0 0 0 0 0 0 0 0
Wind_Speed
17 16 15 15 15 14 13 14 13 11 11 12 12 11 10 10 9 9 8 8 8 6 5 5 5 3 3 2 2 2 2 2 3 3 1 1 1 2 3 3 3 3 5
15 15 15 14 14 14 14 13 12 12 12 12 11 11 10 10 10 10 9 8 8 8 7 6 5 3 3 2 2 2 2 2 2 3 2 1 2 2 3 3 4 4 4
13 14 14 14 14 15 14 12 12 12 11 11 11 11 11 10 10 9 9 9 8 7 7 7 5 5 4 3 3 2 2 1 1 1 2 1 1 2 3 3 4 4 5
12 13 14 14 14 14 13 12 12 12 12 12 11 11 10 10 9 9 8 8 7 6 6 5 5 5 5 4 3 3 2 2 1 0 1 1 2 2 2 3 4 3 5
12 12 12 12 12 12 12 12 11 11 11 11 10 10 9 8 8 9 9 8 8 6 5 5 4 5 5 4 3 3 3 2 1 1 1 1 2 2 2 2 3 4 4
11 11 10 11 11 12 12 12 12 11 11 11 11 11 10 7 12 15 11 8 8 7 6 5 4 5 5 5 5 5 5 3 2 1 1 1 2 2 2 2 2 3 4
10 10 11 12 12 12 12 12 13 12 11 11 10 10 10 10 16 17 15 9 8 7 7 6 4 4 5 4 5 5 4 4 3 3 1 2 2 2 1 2 2 2 4
10 10 11 12 12 12 13 13 12 11 11 10 10 10 9 11 17 17 16 9 7 6 6 6 6 5 5 6 5 4 3 2 3 2 1 1 1 0 0 1 2 3 4
11 11 12 12 13 13 13 13 11 11 10 9 10 11 10 11 16 18 15 8 7 6 5 6 6 5 8 9 6 5 3 2 4 5 5 4 5 5 4 2 3 3 4
10 11 11 12 13 13 13 12 10 10 10 10 9 9 10 10 15 18 16 8 8 6 5 5 7 7 9 9 6 5 4 2 2 3 4 4 4 5 6 2 1 1 2
8 9 10 11 12 12 11 11 12 11 11 10 10 7 8 10 15 18 16 8 8 7 5 4 3 9 9 9 7 4 5 4 2 2 2 2 2 2 3 2 1 1 1
9 9 10 11 10 11 13 12 12 13 12 11 10 8 5 7 11 14 16 13 12 8 6 4 5 10 9 9 6 6 7 6 2 2 1 1 2 2 3 3 2 2 2
9 10 10 11 10 11 13 13 12 11 10 9 9 8 6 5 8 15 16 16 15 7 6 10 10 11 9 6 7 8 6 3 2 1 0 1 1 2 2 2 3 3 3
10 10 10 11 11 11 10 10 11 11 11 10 9 9 8 6 6 7 8 9 12 9 7 10 12 11 8 7 6 4 2 2 2 1 0 1 1 2 2 2 2 3 3
10 9 9 10 11 10 8 7 9 8 11 13 11 11 12 10 10 15 11 8 7 8 9 6 4 4 3 3 2 2 2 2 2 1 1 1 1 2 2 2 2 2 2
10 9 9 9 9 9 9 7 7 8 12 12 13 12 9 12 19 19 17 17 17 18 10 6 5 4 4 3 3 2 1 1 1 1 1 1 1 1 2 2 2 2 3
11 10 9 9 10 10 10 11 10 9 12 14 16 16 16 19 21 20 19 18 17 15 6 5 5 4 4 3 3 2 1 1 1 1 1 0 1 1 2 2 3 3 3
9 10 10 9 10 10 10 10 10 11 11 7 11 17 19 21 21 21 20 15 9 6 4 5 5 4 4 3 3 2 2 1 1 1 0 0 1 1 2 2 2 3 4
9 8 9 9 9 9 9 10 9 10 10 10 8 11 17 18 19 19 16 7 8 6 5 5 4 4 4 3 3 3 2 2 1 1 0 0 0 1 1 2 3 6 4
7 12 12 10 10 10 10 10 10 11 11 11 10 10 10 10 9 9 6 5 6 6 5 5 4 4 4 4 3 3 2 2 1 1 1 1 1 1 2 2 3 3 3
8 11 15 11 10 11 11 11 11 11 11 10 9 11 15 9 9 9 7 6 6 6 6 5 5 4 4 3 3 3 3 2 2 1 1 1 1 1 2 2 3 3 3
8 9 10 10 10 10 10 10 10 10 11 11 9 11 17 8 7 7 6 6 5 5 5 5 5 4 4 4 4 4 3 2 2 2 1 1 1 1 1 2 2 3 3
9 10 10 9 9 14 12 10 10 10 11 11 11 10 9 8 7 7 7 6 5 5 5 5 5 4 3 3 3 4 4 3 3 3 2 1 1 1 1 2 3 4 4
10 11 12 11 10 11 11 11 10 11 11 11 10 9 9 8 8 8 7 6 6 5 5 4 5 5 6 4 3 3 3 3 3 3 3 2 2 1 2 2 3 4 4
10 11 11 12 12 11 11 11 11 11 11 10 10 9 9 8 8 8 7 6 7 6 6 5 4 5 6 5 4 3 5 6 5 3 3 2 2 2 2 3 3 3 3
10 11 11 10 11 11 12 12 11 11 11 10 10 9 9 9 8 8 7 7 6 6 5 4 5 5 5 4 4 6 6 5 5 4 3 2 2 2 2 2 3 3 3
Wind_Direction
189 189 188 189 189 185 187 189 188 184 183 184 185 185 184 184 182 184 187 179 186 190 186 187 196 181 173 178 166 163 175 171 230 274 276 315 335 330 335 333 326 324 324
187 185 186 185 183 184 187 186 182 183 184 183 180 182 184 184 184 186 185 182 186 189 186 182 191 171 172 170 163 173 180 178 194 257 285 312 316 329 328 325 334 336 319
179 181 182 181 182 184 184 180 178 177 177 177 177 181 183 182 183 185 182 181 183 184 180 180 180 165 178 174 170 179 177 155 159 203 270 312 315 333 332 326 329 323 322
175 177 181 182 181 181 177 174 175 174 174 176 177 179 179 177 177 174 172 170 169 167 165 167 167 171 180 177 175 178 156 140 129 173 276 305 304 321 329 317 321 324 317
173 176 179 177 172 169 169 170 170 170 171 169 169 170 169 170 172 166 163 160 157 152 148 150 154 154 159 162 158 161 148 144 136 150 270 311 305 320 316 307 312 317 308
172 174 168 164 165 167 167 165 164 164 163 162 166 167 167 170 165 163 158 155 154 153 150 144 138 141 147 146 140 136 139 145 164 167 220 266 281 283 295 319 316 330 312
169 166 164 163 165 165 161 161 163 162 157 159 161 162 163 163 159 158 154 150 151 153 151 147 137 137 131 123 116 102 93 95 118 147 184 242 266 270 293 306 295 290 278
163 163 163 162 161 160 160 162 160 156 157 156 156 156 152 156 154 152 147 140 136 141 145 148 145 143 142 133 119 103 83 66 73 96 146 214 289 280 192 286 280 297 288
167 167 166 162 159 159 161 160 153 149 148 148 150 150 148 151 153 149 143 135 131 131 133 138 141 143 144 134 125 120 97 58 58 67 62 49 32 22 32 33 360 352 323
173 169 163 160 159 160 158 152 145 144 142 140 140 147 148 150 154 150 143 137 134 132 125 132 140 142 141 138 136 136 131 115 77 55 43 33 23 11 21 36 353 334 318
159 156 155 156 155 152 145 143 141 137 135 135 133 135 143 149 153 153 149 144 146 142 139 139 142 141 137 135 129 133 132 125 108 87 54 20 8 1 354 353 348 219 257
149 152 153 151 148 146 142 141 141 140 138 136 132 129 128 140 149 154 152 147 145 142 146 143 139 137 131 128 122 118 114 107 97 85 56 9 346 335 329 329 325 304 254
151 153 152 148 146 147 147 145 145 146 144 146 145 144 140 135 145 150 148 145 142 133 137 141 136 131 125 120 116 116 110 103 103 91 44 315 306 306 322 331 333 330 318
155 154 153 151 148 148 147 150 153 155 152 151 152 150 145 143 144 143 139 137 135 127 124 130 127 122 111 111 111 103 95 116 120 133 261 316 334 346 345 339 336 338 337
156 155 155 152 149 148 146 152 156 163 164 160 161 158 157 161 166 156 147 143 141 137 126 112 108 115 113 108 99 95 92 88 83 69 68 16 358 354 340 341 344 345 335
157 158 157 152 148 145 138 118 108 126 139 143 148 150 152 151 152 153 150 148 146 144 131 134 138 140 145 147 141 127 110 109 98 87 72 23 354 338 331 335 342 339 322
166 163 157 155 153 151 148 145 134 117 122 135 144 148 146 147 150 150 148 146 148 144 131 143 148 153 154 153 150 147 151 142 122 114 94 5 335 328 331 335 338 331 320
163 160 158 157 155 153 151 148 146 145 141 133 142 146 145 147 148 148 146 138 143 142 138 149 153 155 154 153 152 149 145 132 122 128 130 326 324 323 327 328 326 320 318
161 158 154 150 148 147 144 141 140 140 138 136 131 140 144 144 145 148 147 142 152 154 149 149 150 151 151 151 151 149 149 153 152 160 187 240 279 305 314 314 315 326 332
159 157 154 150 148 147 146 145 145 145 144 146 149 148 145 141 144 151 148 141 146 149 150 150 151 150 151 152 151 150 151 155 160 173 206 244 265 277 293 302 310 314 312
155 155 153 150 153 153 151 151 150 150 151 149 149 155 156 151 151 152 152 152 153 153 152 150 150 152 152 151 152 155 160 170 175 181 200 235 264 285 287 291 298 302 308
156 157 156 156 152 151 150 149 149 149 148 145 143 150 153 140 143 147 148 149 148 147 148 148 150 155 160 162 162 162 167 176 182 185 198 224 255 274 286 297 306 310 313
154 152 150 149 147 150 147 147 148 148 148 147 148 148 149 148 148 147 148 146 143 142 141 142 144 147 150 156 161 165 173 186 191 186 190 212 244 266 281 292 302 311 313
155 155 153 150 148 150 150 149 149 148 147 148 149 150 150 149 148 147 145 142 140 140 141 144 149 155 156 154 158 165 176 185 185 188 190 198 221 252 271 287 294 300 303
156 154 154 153 153 152 150 149 149 149 149 150 150 149 146 145 145 144 143 142 142 143 144 144 145 151 158 161 165 176 190 196 196 183 176 184 210 238 257 274 286 297 300
153 152 152 151 153 152 151 152 152 151 150 149 149 148 148 148 147 146 146 144 144 144 145 145 149 153 159 165 177 187 196 202 205 201 177 178 202 236 253 264 277 287 294